Wind_Speed
14 15 15 14 15 14 14 14 14 14 15 15 15 15 15 16 15 15 15 15 15 15 15 15 15 15 15 15 14 14 14 15 15 15 14 14 15 15 15 15 15 15 14
14 15 15 15 15 15 15 15 15 14 15 15 15 16 16 16 17 17 16 16 17 16 16 16 16 16 16 16 16 16 16 16 16 16 16 16 16 16 16 16 16 16 16
14 14 14 15 16 16 16 15 15 16 15 15 16 16 17 17 17 17 17 17 17 17 17 17 17 17 18 18 18 18 17 18 18 18 18 18 18 18 18 17 17 17 16
15 15 16 17 17 17 16 16 16 16 16 16 17 17 17 18 18 18 18 18 19 19 18 19 19 18 18 19 20 20 19 19 19 20 20 20 20 20 19 19 18 18 18
16 16 17 18 17 17 17 17 17 17 18 18 18 18 18 19 19 19 19 20 20 20 20 21 21 20 20 20 20 21 21 20 20 20 20 21 21 21 21 19 19 18 18
16 17 17 18 17 17 18 18 18 17 18 19 18 18 19 19 20 20 20 20 21 22 22 22 21 21 21 21 22 22 22 21 21 21 21 22 21 21 22 22 20 20 20
17 17 18 18 19 19 19 19 19 19 19 20 20 20 20 20 20 20 21 21 22 23 23 23 23 23 23 23 23 23 23 23 23 23 23 23 23 22 22 22 22 21 21
18 18 18 19 19 20 20 19 20 20 20 21 21 22 22 21 21 22 23 23 23 23 24 24 24 25 25 25 24 25 25 25 25 25 25 25 24 23 23 24 23 23 22
18 19 19 20 19 19 20 19 20 20 20 20 21 22 22 21 21 23 24 24 23 24 24 25 25 26 26 26 26 26 27 27 26 26 26 26 25 25 24 25 25 24 24
18 19 19 19 19 19 18 19 19 20 20 20 21 22 22 22 22 23 23 24 24 25 25 26 27 27 28 27 27 27 27 27 27 27 26 26 26 26 25 25 25 26 26
18 19 20 20 20 20 20 19 20 20 21 22 22 22 22 22 22 23 24 25 26 27 27 27 27 27 28 28 27 28 28 28 28 27 27 27 26 26 26 26 26 26 27
19 19 20 21 22 21 21 21 22 22 22 23 23 23 23 24 24 24 24 25 26 27 28 28 28 28 27 28 28 28 28 28 28 28 27 27 26 26 25 26 26 26 27
20 20 21 21 22 22 21 22 23 23 24 25 25 23 24 24 25 26 26 26 26 26 27 28 28 29 29 29 29 29 29 28 27 27 27 27 27 26 26 26 26 26 27
21 21 21 21 21 22 22 23 23 23 24 24 25 24 25 25 26 26 27 27 26 26 26 27 29 28 29 29 28 28 29 29 28 27 28 28 28 27 27 27 27 27 27
22 23 23 23 22 22 23 23 23 24 24 24 25 25 26 27 27 27 27 26 27 27 26 27 27 28 29 29 28 29 29 29 29 29 29 29 29 29 28 28 27 28 28
23 23 23 24 23 24 24 23 24 25 25 26 26 26 27 27 27 26 27 27 28 28 27 27 28 28 28 28 28 28 28 29 29 29 29 30 30 30 29 29 29 28 29
23 23 24 24 24 24 25 24 24 25 25 26 27 27 27 27 26 26 26 26 26 27 27 27 27 28 29 28 28 28 28 28 29 29 29 30 31 30 30 30 30 29 28
22 23 24 24 24 24 24 24 25 26 26 26 26 26 26 26 26 26 26 26 27 28 28 27 27 27 27 27 27 27 27 27 28 30 30 30 31 31 30 30 30 29 29
23 23 24 24 24 24 24 25 26 26 26 26 26 25 26 27 27 27 27 28 28 28 28 27 27 27 27 28 28 27 27 27 28 29 29 30 31 31 30 30 30 30 30
23 24 24 24 24 25 25 25 26 26 27 27 27 26 26 27 26 27 28 28 28 28 27 27 27 28 28 28 28 28 28 28 28 28 28 28 29 30 30 30 31 31 31
23 24 24 24 25 25 26 25 25 26 27 27 27 27 27 27 27 27 28 28 28 28 27 27 27 27 28 28 28 28 28 28 28 29 29 29 30 30 30 30 31 31 31
24 24 25 25 26 26 26 26 26 26 27 27 27 27 28 29 29 28 28 28 28 27 27 27 27 28 28 28 28 28 28 28 28 28 29 29 30 30 31 30 30 30 30
25 25 25 26 26 26 26 26 26 26 26 26 26 27 28 29 29 29 29 28 28 28 28 27 27 28 28 28 28 29 29 29 28 28 29 29 29 30 30 30 30 30 30
25 26 26 26 26 26 26 25 26 26 26 25 26 27 27 27 28 28 28 28 28 28 28 28 28 27 28 28 29 30 29 29 29 29 29 29 30 30 31 30 31 31 31
26 27 28 27 27 26 26 26 26 26 26 26 26 26 26 26 26 27 28 28 28 28 28 28 29 28 28 29 29 30 30 30 29 29 30 30 30 30 30 30 31 31 31
27 27 27 27 27 26 26 26 26 27 27 27 26 25 26 26 25 26 26 27 27 28 28 28 29 29 29 29 29 29 29 29 28 28 29 30 30 30 30 30 31 31 31
Wind_Direction
287 286 284 280 277 275 271 267 268 266 265 262 261 258 257 257 257 257 253 252 252 253 250 250 251 252 252 252 252 255 258 257 256 257 259 258 258 258 258 258 259 257 258
285 283 282 282 281 277 273 269 269 270 267 264 261 258 256 256 256 254 253 252 251 253 253 252 253 254 255 254 254 256 259 259 258 258 260 260 259 259 259 259 259 260 260
286 285 282 281 281 278 274 275 271 268 266 265 262 259 258 258 257 255 255 254 253 253 254 253 252 253 255 256 255 256 258 259 259 259 259 260 259 261 260 260 259 259 260
285 286 285 283 281 278 276 276 276 268 266 264 261 260 259 260 258 259 257 257 255 253 253 253 252 253 255 256 257 257 258 258 258 260 259 260 260 261 261 260 258 258 259
284 285 286 283 281 277 276 277 277 270 266 263 262 261 262 264 260 259 259 257 255 253 253 252 252 254 256 257 258 259 259 259 260 260 260 260 261 260 262 261 258 258 259
284 283 284 283 278 277 278 278 277 272 267 265 264 262 263 264 263 260 259 257 256 254 254 254 253 254 256 257 259 260 260 261 260 259 259 260 261 260 260 260 260 260 259
282 282 283 284 278 277 278 277 277 272 269 266 264 262 262 263 263 261 261 260 257 253 253 255 255 257 257 258 259 260 262 262 261 260 260 260 260 261 261 261 261 261 259
282 281 282 282 279 278 278 276 276 273 271 267 265 264 264 263 264 263 261 259 256 254 254 255 257 258 260 260 260 260 262 263 262 260 259 259 259 260 262 262 261 259 259
282 280 281 280 279 279 279 277 274 273 272 271 268 266 264 263 264 265 263 259 255 255 255 257 258 260 260 262 263 262 264 263 262 261 259 258 259 260 262 261 259 257 258
282 281 281 279 279 281 279 277 277 273 271 272 270 267 265 265 266 264 263 261 259 259 258 258 260 259 259 261 263 263 265 264 262 261 259 258 258 258 259 258 257 256 256
283 281 281 280 279 279 281 279 277 274 273 271 270 268 268 269 269 267 265 264 263 263 261 259 259 258 259 261 263 263 264 263 262 261 260 258 257 257 257 257 257 256 255
287 286 281 282 279 278 277 278 278 275 273 272 270 270 270 271 272 270 267 266 267 265 262 260 260 259 259 262 263 263 263 262 261 261 259 256 255 255 255 255 256 256 256
291 290 286 284 282 278 277 278 279 277 274 271 270 272 272 271 271 270 269 266 266 266 263 261 261 260 260 262 263 263 262 261 261 260 258 254 253 254 255 255 255 255 256
289 288 286 286 285 282 280 278 277 275 274 274 272 273 272 272 272 271 269 267 265 266 265 264 262 261 261 263 263 263 261 260 259 259 259 255 253 253 255 255 254 253 255
288 287 286 286 285 283 283 279 276 276 274 273 274 273 273 272 270 269 268 267 266 266 266 265 265 263 263 263 262 261 259 258 258 259 259 256 254 254 254 254 253 253 254
289 288 287 287 284 283 283 279 278 277 275 273 271 272 273 272 269 268 268 266 265 265 265 264 264 265 263 263 262 260 258 258 257 258 258 257 255 254 254 255 253 252 253
288 287 287 286 284 283 281 280 279 279 278 276 273 273 272 269 268 269 268 266 266 266 265 265 264 264 263 261 260 260 261 259 258 258 257 257 256 254 254 255 254 254 254
288 286 286 286 285 284 282 281 281 279 280 277 275 274 271 270 270 269 267 266 267 268 267 266 264 264 262 260 260 260 261 261 260 258 258 257 256 254 253 254 254 254 254
288 287 287 286 285 287 285 284 283 280 279 276 275 273 271 271 271 269 268 267 267 267 267 265 263 261 261 260 260 261 261 261 260 258 258 257 256 254 253 253 253 254 255
289 288 286 285 286 288 287 285 284 281 278 276 276 273 271 271 271 270 269 268 267 266 265 264 261 261 261 260 261 261 261 260 259 259 258 258 256 254 253 253 253 254 255
289 288 287 287 287 288 287 286 284 281 278 277 276 274 273 272 270 270 269 268 266 265 264 263 261 262 262 262 262 261 259 259 259 259 259 258 256 254 253 253 253 253 255
292 291 290 289 289 288 289 288 286 284 281 278 277 274 274 273 271 270 269 268 266 266 265 264 263 264 263 261 261 261 260 259 260 261 261 260 257 255 254 254 253 253 254
292 291 292 291 291 291 291 288 287 286 284 282 279 276 274 273 271 270 269 267 266 267 267 265 265 264 261 260 260 260 260 260 261 261 260 259 258 255 254 253 253 254 254
293 293 293 292 292 292 291 289 288 286 285 284 282 280 277 275 272 270 268 266 266 267 267 266 266 264 262 260 261 261 260 260 261 261 261 259 259 257 256 254 254 254 253
294 293 292 292 292 291 291 290 290 289 287 286 285 281 278 275 274 271 269 267 266 266 267 267 266 264 263 263 262 262 262 262 262 262 262 261 259 257 256 256 255 253 253
296 294 291 292 293 292 291 290 289 289 288 287 285 282 279 277 275 273 271 268 267 266 266 266 266 265 264 262 262 263 262 261 261 261 261 260 259 257 257 256 255 254 254
Height
5860 5859 5858 5858 5858 5857 5857 5857 5857 5857 5857 5858 5858 5859 5859 5860 5861 5861 5862 5862 5863 5864 5864 5865 5865 5866 5866 5867 5868 5869 5869 5870 5870 5871 5872 5872 5873 5873 5873 5873 5873 5873 5873
5856 5856 5855 5854 5854 5853 5853 5853 5853 5853 5854 5854 5854 5855 5855 5856 5856 5857 5857 5858 5859 5860 5861 5861 5862 5862 5863 5864 5864 5865 5865 5866 5867 5867 5868 5868 5869 5869 5869 5870 5870 5870 5870
5853 5852 5851 5850 5850 5849 5849 5849 5849 5849 5850 5850 5850 5851 5851 5852 5852 5852 5853 5854 5855 5856 5856 5857 5857 5858 5859 5859 5860 5861 5861 5862 5863 5863 5864 5864 5864 5865 5865 5865 5866 5866 5866
5849 5848 5847 5847 5846 5845 5845 5845 5845 5845 5845 5845 5846 5846 5847 5847 5847 5848 5849 5849 5850 5851 5852 5852 5853 5853 5854 5855 5855 5856 5857 5857 5858 5858 5859 5860 5860 5860 5861 5861 5861 5862 5862
5845 5844 5843 5842 5841 5841 5841 5840 5840 5840 5840 5841 5841 5842 5842 5843 5843 5843 5844 5845 5845 5846 5846 5847 5848 5848 5849 5850 5851 5851 5852 5852 5853 5853 5854 5854 5855 5855 5856 5856 5857 5857 5858
5841 5840 5839 5838 5837 5837 5836 5836 5835 5835 5835 5835 5836 5836 5837 5837 5838 5838 5839 5840 5840 5841 5841 5842 5843 5843 5844 5845 5845 5846 5846 5846 5847 5847 5848 5849 5850 5850 5851 5851 5852 5853 5853
5836 5835 5834 5833 5832 5832 5831 5830 5830 5830 5830 5830 5830 5831 5831 5832 5832 5833 5833 5834 5834 5835 5836 5837 5837 5838 5839 5839 5840 5840 5840 5841 5841 5842 5842 5843 5844 5845 5845 5846 5846 5847 5848
5831 5830 5829 5828 5826 5825 5825 5824 5824 5824 5824 5824 5824 5824 5825 5826 5826 5827 5827 5827 5828 5828 5830 5831 5831 5832 5833 5833 5834 5834 5834 5835 5835 5835 5836 5837 5838 5838 5839 5840 5840 5841 5842
5826 5825 5824 5822 5821 5820 5819 5818 5818 5818 5818 5818 5818 5819 5819 5820 5820 5820 5821 5821 5822 5823 5823 5824 5825 5826 5826 5827 5827 5827 5827 5828 5828 5829 5829 5830 5831 5832 5832 5833 5834 5835 5836
5820 5819 5818 5817 5816 5815 5814 5813 5813 5812 5812 5812 5812 5812 5813 5813 5814 5814 5814 5815 5815 5816 5817 5817 5818 5818 5818 5819 5820 5820 5820 5820 5821 5821 5822 5823 5824 5824 5825 5826 5827 5828 5829
5815 5814 5812 5811 5810 5809 5808 5807 5807 5806 5806 5805 5805 5805 5806 5806 5807 5808 5808 5809 5808 5809 5809 5810 5810 5811 5811 5811 5812 5812 5813 5813 5814 5814 5815 5816 5816 5817 5818 5819 5820 5821 5822
5809 5808 5806 5805 5804 5803 5802 5801 5800 5799 5799 5799 5799 5799 5799 5799 5800 5800 5801 5801 5801 5801 5801 5802 5803 5803 5803 5804 5804 5805 5805 5806 5806 5807 5807 5808 5809 5810 5811 5812 5812 5813 5815
5804 5802 5801 5799 5797 5796 5795 5795 5794 5793 5792 5792 5791 5792 5792 5792 5792 5793 5793 5794 5794 5794 5794 5794 5794 5795 5796 5796 5796 5797 5797 5798 5798 5799 5800 5800 5802 5803 5804 5804 5805 5806 5808
5798 5797 5794 5793 5791 5790 5788 5787 5787 5786 5785 5785 5784 5784 5785 5784 5784 5785 5785 5786 5786 5786 5786 5787 5786 5787 5787 5787 5788 5788 5789 5789 5790 5791 5791 5792 5794 5795 5796 5797 5798 5799 5800
5792 5790 5788 5786 5785 5783 5782 5781 5780 5779 5779 5778 5777 5777 5777 5777 5776 5776 5777 5777 5778 5778 5779 5779 5779 5779 5779 5779 5780 5780 5780 5781 5782 5783 5783 5784 5785 5787 5788 5789 5790 5791 5792
5786 5784 5782 5780 5778 5777 5775 5774 5773 5772 5771 5770 5770 5769 5769 5769 5768 5768 5769 5769 5769 5770 5771 5771 5771 5771 5771 5771 5771 5771 5772 5772 5773 5774 5774 5775 5776 5778 5779 5780 5781 5782 5784
5779 5777 5775 5773 5771 5769 5768 5767 5766 5764 5763 5762 5762 5761 5760 5760 5760 5760 5761 5761 5761 5761 5762 5763 5762 5762 5762 5762 5763 5763 5764 5764 5764 5765 5766 5766 5768 5769 5770 5772 5773 5774 5775
5772 5770 5769 5766 5764 5762 5761 5759 5758 5757 5755 5754 5753 5753 5752 5752 5753 5752 5752 5753 5753 5753 5753 5754 5754 5753 5753 5754 5754 5755 5755 5756 5756 5756 5757 5758 5759 5760 5761 5763 5764 5765 5766
5766 5764 5762 5760 5757 5756 5754 5752 5750 5749 5748 5747 5746 5745 5744 5744 5744 5744 5744 5744 5744 5744 5744 5745 5745 5745 5745 5746 5746 5747 5747 5747 5748 5748 5749 5749 5750 5751 5752 5754 5755 5756 5758
5759 5757 5755 5753 5751 5749 5747 5745 5743 5741 5740 5739 5738 5737 5736 5735 5735 5735 5735 5735 5735 5735 5736 5736 5736 5737 5737 5737 5738 5738 5739 5739 5739 5740 5740 5741 5742 5742 5744 5745 5746 5748 5748
5753 5751 5748 5746 5744 5742 5740 5737 5735 5733 5732 5730 5729 5728 5728 5727 5727 5726 5726 5726 5726 5726 5727 5727 5728 5728 5728 5729 5729 5730 5730 5730 5731 5731 5732 5732 5733 5734 5735 5736 5737 5738 5739
5746 5744 5741 5739 5737 5735 5732 5730 5728 5726 5724 5723 5721 5720 5719 5719 5718 5717 5717 5717 5717 5718 5718 5719 5719 5720 5720 5720 5720 5721 5721 5722 5723 5723 5723 5723 5724 5725 5726 5727 5728 5729 5730
5739 5737 5734 5732 5730 5727 5725 5722 5720 5718 5717 5715 5713 5712 5711 5710 5709 5708 5708 5708 5708 5708 5709 5710 5710 5711 5711 5711 5712 5712 5712 5712 5713 5713 5713 5714 5715 5716 5717 5718 5719 5720 5721
5732 5730 5727 5725 5722 5720 5717 5715 5713 5711 5709 5707 5705 5704 5703 5701 5700 5700 5699 5699 5699 5700 5700 5701 5701 5701 5701 5701 5701 5702 5702 5703 5703 5703 5704 5705 5706 5706 5707 5708 5709 5711 5712
5725 5722 5719 5717 5715 5712 5710 5707 5705 5703 5701 5699 5697 5695 5694 5693 5692 5691 5691 5691 5691 5691 5691 5691 5691 5691 5691 5692 5692 5692 5692 5693 5694 5695 5694 5695 5696 5697 5698 5699 5700 5701 5703
5717 5714 5711 5709 5707 5704 5702 5700 5697 5695 5693 5691 5689 5687 5686 5685 5684 5683 5682 5682 5682 5682 5682 5682 5682 5682 5682 5682 5682 5683 5683 5684 5684 5685 5685 5685 5686 5686 5688 5690 5690 5691 5693